Vernal, UT

12:30 PM MST on November 13, 2019 (GMT -0700)
Vernal

Weather History for KVEL - June, 2019

Change the Weather History Date:

Thursday, June 13, 2019

  Actual Average Record
Temperature  
Mean Temperature 66 °F 65 °F  
Max Temperature 82 °F 79 °F 96 °F (2018)
Min Temperature 50 °F 50 °F 30 °F (2001)
Degree Days  
Heating Degree Days 0 3  
Month to date heating degree days 38 49  
Since 1 June heating degree days 38 49  
Since 1 July heating degree days 7519 7197  
Cooling Degree Days 2 2  
Month to date cooling degree days 5 21  
Year to date cooling degree days 6 30  
Since 1 June cooling degree days 5 21  
Growing Degree Days 16 (Base 50)    
Moisture  
Dew Point 46 °F    
Average Humidity 52    
Maximum Humidity 78    
Minimum Humidity 22    
Precipitation  
Precipitation 0.05 in 0.04 in 0.31 in (1957)
Month to date precipitation 0.05 0.40  
Year to date precipitation 7.47 3.81  
Sea Level Pressure  
Sea Level Pressure 29.91 in    
Wind  
Wind Speed 4 mph ()    
Max Wind Speed 33 mph    
Max Gust Speed 44 mph    
Visibility 9.8 miles    
Events Rain , Thunderstorm    
T = Trace of Precipitation, MM = Missing Value Source: Averaged Metar Reports

Daily Weather History Graph

Daily Weather History Graph

Search for Another Location

Airport or City:

Astronomy

Jun. 13, 2019 Rise Set
Actual Time 5:47 AM MDT 8:49 PM MDT
Civil Twilight 5:14 AM MDT 9:22 PM MDT
Nautical Twilight 4:32 AM MDT 10:04 PM MDT
Astronomical Twilight 3:42 AM MDT 10:53 PM MDT
Moon 5:06 PM MDT 3:35 AM MDT
Length of Visible Light 16h 08m
Length of Day
15h 02m
Waxing Gibbous, 86% of the Moon is Illuminated
Jun 13
Waxing Gibbous
Jun 17
Full
Jun 25
Last Quarter
Jul 2
New
Jul 9
First Quarter

Hourly Weather History & Observations

Time (MDT) Temp. Dew Point Humidity Pressure Visibility Wind Dir Wind Speed Gust Speed Precip Events Conditions
12:53 AM 60.1 °F 46.0 °F 60% 29.92 in 10.0 mi Calm Calm - N/A   Partly Cloudy
1:53 AM 57.9 °F 44.1 °F 60% 29.91 in 10.0 mi WNW 5.8 mph - N/A   Clear
2:53 AM 59.0 °F 42.1 °F 53% 29.90 in 10.0 mi West 4.6 mph - N/A   Clear
3:53 AM 57.9 °F 42.1 °F 56% 29.89 in 10.0 mi NNW 4.6 mph - N/A   Clear
4:53 AM 53.1 °F 41.0 °F 64% 29.91 in 10.0 mi West 3.5 mph - N/A   Clear
5:53 AM 52.0 °F 41.0 °F 66% 29.92 in 10.0 mi West 3.5 mph - N/A   Clear
6:53 AM 55.9 °F 44.1 °F 64% 29.94 in 10.0 mi West 3.5 mph - N/A   Clear
7:53 AM 61.0 °F 43.0 °F 52% 29.93 in 10.0 mi Calm Calm - N/A   Clear
8:53 AM 66.0 °F 45.0 °F 47% 29.94 in 10.0 mi Calm Calm - N/A   Clear
9:53 AM 69.1 °F 46.0 °F 44% 29.93 in 10.0 mi Variable 4.6 mph - N/A   Clear
10:53 AM 72.0 °F 44.1 °F 37% 29.90 in 10.0 mi Variable 3.5 mph - N/A   Clear
11:53 AM 75.9 °F 44.1 °F 32% 29.88 in 10.0 mi Variable 4.6 mph - N/A   Clear
12:53 PM 80.1 °F 39.9 °F 24% 29.85 in 10.0 mi SE 5.8 mph - N/A   Clear
1:53 PM 82.9 °F 39.9 °F 22% 29.83 in 10.0 mi North - - N/A   Clear
2:53 PM 73.9 °F 44.1 °F 34% 29.87 in 10.0 mi Variable 6.9 mph - 0.00 in Rain Light Rain
3:53 PM 73.9 °F 41.0 °F 30% 29.88 in 10.0 mi NNW 13.8 mph 31.1 mph 0.01 in   Overcast
4:53 PM 70.0 °F 46.9 °F 44% 29.89 in 9.0 mi NNW 8.1 mph - 0.00 in Rain Light Rain
5:15 PM 72.0 °F 43.0 °F 35% 29.98 in 10.0 mi NNE 5.8 mph 23.0 mph 0.00 in Rain Light Rain
5:53 PM 72.0 °F 46.9 °F 41% 29.83 in 10.0 mi NE 8.1 mph - 0.00 in   Mostly Cloudy
6:43 PM 70.0 °F 46.9 °F 44% 30.01 in 10.0 mi Calm Calm - N/A Thunderstorm Mostly Cloudy
6:53 PM 68.0 °F 52.0 °F 56% 29.85 in 9.0 mi Calm Calm - 0.01 in Rain , Thunderstorm Light Rain
7:03 PM 62.1 °F 55.0 °F 78% 29.99 in 6.0 mi South 3.5 mph - 0.02 in Rain Light Rain
7:53 PM 64.0 °F 55.9 °F 75% 29.83 in 10.0 mi West 5.8 mph - 0.02 in   Partly Cloudy
8:53 PM 63.0 °F 54.0 °F 72% 29.85 in 10.0 mi West 6.9 mph - N/A   Clear
9:50 PM 64.4 °F 50.0 °F 59% 30.07 in 10.0 mi WSW 26.5 mph 43.7 mph 0.01 in Rain Light Rain
9:53 PM 63.0 °F 51.1 °F 65% 29.92 in 10.0 mi WSW 27.6 mph 43.7 mph 0.01 in Rain Light Rain
10:53 PM 60.1 °F 51.1 °F 72% 29.92 in 10.0 mi Calm Calm - 0.00 in Rain Light Rain
11:53 PM 59.0 °F 51.1 °F 75% 29.89 in 10.0 mi SSE 3.5 mph - 0.00 in   Clear